Location: Bo?a Wola
(50.4192°N, 19.7966°E)
Time: 20:31:32
(UTC+00:00)

Cosmos 1455 Rocket - Pass Details

Date: 20 September 2024
Orbit: 601 x 623 km, 82.5° (Epoch: 13 October)

Event Time Altitude Azimuth Distance (km) Brightness Sun altitude
Exits shadow 00:52:39 22° 352° (N) 1,333 5.1 -30.8°
Drops below altitude 10° 00:54:22 10° 2° (N) 1,972 6.2 -30.6°
Sets 00:56:39 0° 7° (N) 2,885 7.2 -30.3°
